Flag for U.S.A. Weather past 2 weeks in Tulsa, Oklahoma, U.S.A.

Now
27 °F

Passing clouds.


Feels Like: 27 °F
Forecast: 25 / 45 °F
Wind: No wind

Location: Tulsa International Airport

Current Time: Dec 29, 2014 at 3:05:02 AM

Latest Report: Dec 29, 2014 at 1:53 AM


Visibility: 10 mi

Pressure: 30.19 "Hg

Humidity: 85%

Dew point: 23 °F

Location of TulsaLocation

Historic Weather in Tulsa — Graph

°F

Tulsa temperature yesterday

Maximum temperature yesterday: 40 °F (at 3:53 PM)
Minimum temperature yesterday: 24 °F (at 2:53 AM)
Average temperature yesterday: 30 °F

Past Weeks' High & Low Weather Summary

 TemperatureHumidityPressure
High63 °F (Dec 14, 12:53 PM)100% (Dec 17, 6:53 PM)30.35 "Hg (Dec 17, 6:53 PM)
Low24 °F (Dec 28, 2:53 AM)28% (Dec 25, 1:53 PM)29.52 "Hg (Dec 22, 2:53 PM)
Average42 °F79%30.03 "Hg
* Reported Dec 14 1:53 AM — Dec 29 1:53 AM, Tulsa, Weather by CustomWeather, © 2014

Note: Actual official high and low records may vary slightly from our data, if they occured in-between our weather recording intervals... More about our weather records

Advertising

Tulsa weather history for previous 24 hours

 ConditionsComfort  
Time TempWeatherWind HumidityBarometerVisibility
1:53 AM
Dec 29
27 °FPassing clouds.No wind85%30.19 "Hg10 mi
12:53 AM25 °FPassing clouds.3 mph85%30.18 "Hg10 mi
11:53 PM
Dec 28
24 °FPassing clouds.No wind88%30.21 "Hg10 mi
10:53 PM24 °FClear.No wind84%30.20 "Hg10 mi
9:53 PM30 °FClear.No wind72%30.18 "Hg10 mi
8:53 PM29 °FClear.No wind75%30.17 "Hg10 mi
7:53 PM31 °FPassing clouds.3 mph69%30.16 "Hg10 mi
6:53 PM33 °FPassing clouds.3 mph61%30.17 "Hg10 mi
5:53 PM35 °FPassing clouds.6 mph56%30.16 "Hg10 mi
4:53 PM37 °FPassing clouds.5 mph54%30.16 "Hg10 mi
3:53 PM40 °FPassing clouds.6 mph49%30.16 "Hg10 mi
2:53 PM39 °FSunny.5 mph46%30.18 "Hg10 mi
1:53 PM37 °FPassing clouds.5 mph52%30.19 "Hg10 mi
12:53 PM36 °FPassing clouds.No wind57%30.22 "Hg10 mi
11:53 AM34 °FPassing clouds.No wind64%30.26 "Hg10 mi
10:53 AM31 °FPassing clouds.No wind73%30.30 "Hg10 mi
9:53 AM28 °FScattered clouds.3 mph78%30.30 "Hg10 mi
8:53 AM25 °FScattered clouds.No wind78%30.32 "Hg10 mi
7:53 AM25 °FScattered clouds.No wind78%30.30 "Hg10 mi
6:53 AM25 °FHigh level clouds.No wind78%30.28 "Hg10 mi
5:53 AM24 °FClear.3 mph81%30.28 "Hg10 mi
4:53 AM26 °FHigh level clouds.5 mph74%30.28 "Hg10 mi
3:53 AM25 °FHigh level clouds.3 mph78%30.27 "Hg10 mi
Weather by CustomWeather, © 2014

See weather overviewHow to use our weather pages